Time,TemperatureF,DewpointF,PressureIn,WindDirection,WindDirectionDegrees,WindSpeedMPH,WindSpeedGustMPH,Humidity,HourlyPrecipIn,Conditions,Clouds,dailyrainin,SoftwareType,DateUTC
2017-11-17 00:11:00,41.3,35.0,29.80,ENE,70,0.0,6.0,77,0.00,,,0.00,weatherlink.com 1.10,2017-11-17 05:11:00,
2017-11-17 00:26:00,40.9,34.0,29.80,East,82,1.0,5.0,77,0.00,,,0.00,weatherlink.com 1.10,2017-11-17 05:26:00,
2017-11-17 00:41:00,40.8,34.0,29.80,North,5,1.0,5.0,77,0.00,,,0.00,weatherlink.com 1.10,2017-11-17 05:41:00,
2017-11-17 01:11:00,40.7,34.0,29.82,NE,48,0.0,8.0,77,0.00,,,0.00,weatherlink.com 1.10,2017-11-17 06:11:00,
2017-11-17 01:26:00,40.2,34.0,29.81,SE,124,0.0,9.0,79,0.00,,,0.00,weatherlink.com 1.10,2017-11-17 06:26:00,
2017-11-17 01:42:00,40.2,34.0,29.82,SW,230,4.0,13.0,78,0.00,,,0.00,weatherlink.com 1.10,2017-11-17 06:42:00,
2017-11-17 01:57:00,40.0,33.0,29.83,NNE,18,5.0,13.0,77,0.00,,,0.00,weatherlink.com 1.10,2017-11-17 06:57:00,
2017-11-17 02:11:00,40.2,33.0,29.83,WSW,252,0.0,9.0,75,0.00,,,0.00,weatherlink.com 1.10,2017-11-17 07:11:00,
2017-11-17 02:26:00,40.2,33.0,29.84,ENE,64,1.0,6.0,74,0.00,,,0.00,weatherlink.com 1.10,2017-11-17 07:26:00,
2017-11-17 02:41:00,40.0,32.0,29.84,West,262,0.0,6.0,72,0.00,,,0.00,weatherlink.com 1.10,2017-11-17 07:41:00,
2017-11-17 02:56:00,39.6,31.0,29.84,West,259,2.0,16.0,71,0.00,,,0.00,weatherlink.com 1.10,2017-11-17 07:56:00,
2017-11-17 03:11:00,39.5,30.0,29.84,ENE,75,1.0,15.0,70,0.00,,,0.00,weatherlink.com 1.10,2017-11-17 08:11:00,
2017-11-17 03:26:00,39.2,30.0,29.85,WSW,245,0.0,10.0,70,0.00,,,0.00,weatherlink.com 1.10,2017-11-17 08:26:00,
2017-11-17 03:41:00,38.8,30.0,29.86,NE,47,2.0,16.0,71,0.00,,,0.00,weatherlink.com 1.10,2017-11-17 08:41:00,
2017-11-17 03:56:00,38.7,30.0,29.86,WSW,239,1.0,15.0,70,0.00,,,0.00,weatherlink.com 1.10,2017-11-17 08:56:00,
2017-11-17 04:11:00,38.5,30.0,29.87,WSW,240,0.0,11.0,71,0.00,,,0.00,weatherlink.com 1.10,2017-11-17 09:11:00,
2017-11-17 04:26:00,38.0,29.0,29.88,South,179,0.0,9.0,71,0.00,,,0.00,weatherlink.com 1.10,2017-11-17 09:26:00,
2017-11-17 04:41:00,37.6,29.0,29.87,WNW,289,1.0,12.0,72,0.00,,,0.00,weatherlink.com 1.10,2017-11-17 09:41:00,
2017-11-17 04:57:00,37.3,29.0,29.88,NE,44,2.0,8.0,71,0.00,,,0.00,weatherlink.com 1.10,2017-11-17 09:57:00,
2017-11-17 05:11:00,37.3,28.0,29.89,NE,41,2.0,7.0,70,0.00,,,0.00,weatherlink.com 1.10,2017-11-17 10:11:00,
2017-11-17 05:26:00,37.1,28.0,29.90,NE,50,0.0,6.0,71,0.00,,,0.00,weatherlink.com 1.10,2017-11-17 10:26:00,
2017-11-17 05:42:00,37.1,29.0,29.91,SSW,202,1.0,15.0,73,0.00,,,0.00,weatherlink.com 1.10,2017-11-17 10:42:00,
2017-11-17 05:57:00,36.7,29.0,29.92,ENE,64,1.0,11.0,74,0.00,,,0.00,weatherlink.com 1.10,2017-11-17 10:57:00,
2017-11-17 06:12:00,36.4,29.0,29.92,North,3,5.0,18.0,73,0.00,,,0.00,weatherlink.com 1.10,2017-11-17 11:12:00,
2017-11-17 06:27:00,36.1,28.0,29.94,NE,45,1.0,9.0,73,0.00,,,0.00,weatherlink.com 1.10,2017-11-17 11:27:00,
2017-11-17 06:45:00,36.0,28.0,29.96,NNE,27,0.0,11.0,72,0.00,,,0.00,weatherlink.com 1.10,2017-11-17 11:45:00,
2017-11-17 06:57:00,36.1,28.0,29.97,NE,36,6.0,11.0,71,0.00,,,0.00,weatherlink.com 1.10,2017-11-17 11:57:00,
2017-11-17 07:12:00,36.1,28.0,29.98,NE,49,6.0,11.0,71,0.00,,,0.00,weatherlink.com 1.10,2017-11-17 12:12:00,
2017-11-17 07:27:00,36.3,27.0,29.99,SE,145,4.0,10.0,69,0.00,,,0.00,weatherlink.com 1.10,2017-11-17 12:27:00,
2017-11-17 07:42:00,36.1,26.0,30.00,North,1,10.0,19.0,68,0.00,,,0.00,weatherlink.com 1.10,2017-11-17 12:42:00,
2017-11-17 07:57:00,36.5,27.0,30.00,North,349,1.0,16.0,68,0.00,,,0.00,weatherlink.com 1.10,2017-11-17 12:57:00,
2017-11-17 08:12:00,36.5,26.0,30.00,WNW,302,4.0,16.0,67,0.00,,,0.00,weatherlink.com 1.10,2017-11-17 13:12:00,
2017-11-17 08:27:00,36.6,27.0,30.00,NNW,342,1.0,15.0,67,0.00,,,0.00,weatherlink.com 1.10,2017-11-17 13:27:00,
2017-11-17 08:42:00,36.8,27.0,30.00,NE,41,3.0,12.0,68,0.00,,,0.00,weatherlink.com 1.10,2017-11-17 13:42:00,
2017-11-17 08:57:00,36.5,26.0,30.01,NNE,31,3.0,12.0,67,0.00,,,0.00,weatherlink.com 1.10,2017-11-17 13:57:00,
2017-11-17 09:12:00,36.7,27.0,30.02,NE,36,0.0,10.0,68,0.00,,,0.00,weatherlink.com 1.10,2017-11-17 14:12:00,
2017-11-17 09:27:00,37.0,27.0,30.02,WSW,242,1.0,12.0,66,0.00,,,0.00,weatherlink.com 1.10,2017-11-17 14:27:00,
2017-11-17 09:43:00,37.6,27.0,30.02,NNW,342,6.0,14.0,66,0.00,,,0.00,weatherlink.com 1.10,2017-11-17 14:43:00,
2017-11-17 09:57:00,37.7,26.0,30.02,NNE,27,2.0,13.0,63,0.00,,,0.00,weatherlink.com 1.10,2017-11-17 14:57:00,
2017-11-17 10:12:00,38.0,27.0,30.02,NE,53,4.0,4.0,65,0.00,,,0.00,weatherlink.com 1.10,2017-11-17 15:12:00,
2017-11-17 10:27:00,39.0,27.0,30.02,NNE,20,4.0,10.0,63,0.00,,,0.00,weatherlink.com 1.10,2017-11-17 15:27:00,
2017-11-17 10:43:00,39.3,26.0,30.01,NNE,23,2.0,10.0,60,0.00,,,0.00,weatherlink.com 1.10,2017-11-17 15:43:00,
2017-11-17 10:57:00,39.9,26.0,30.01,ENE,63,3.0,14.0,59,0.00,,,0.00,weatherlink.com 1.10,2017-11-17 15:57:00,
2017-11-17 11:12:00,40.7,26.0,30.00,NNE,27,2.0,16.0,57,0.00,,,0.00,weatherlink.com 1.10,2017-11-17 16:12:00,
2017-11-17 11:27:00,41.4,27.0,29.99,NE,44,5.0,9.0,56,0.00,,,0.00,weatherlink.com 1.10,2017-11-17 16:27:00,
2017-11-17 11:42:00,41.5,27.0,29.98,NNE,18,3.0,11.0,56,0.00,,,0.00,weatherlink.com 1.10,2017-11-17 16:42:00,
2017-11-17 11:58:00,41.9,26.0,29.99,SW,219,0.0,9.0,54,0.00,,,0.00,weatherlink.com 1.10,2017-11-17 16:58:00,
2017-11-17 12:12:00,41.7,26.0,29.99,WSW,253,0.0,12.0,54,0.00,,,0.00,weatherlink.com 1.10,2017-11-17 17:12:00,
2017-11-17 12:27:00,41.3,25.0,29.99,NE,46,14.0,14.0,52,0.00,,,0.00,weatherlink.com 1.10,2017-11-17 17:27:00,
2017-11-17 12:42:00,41.5,25.0,29.99,NE,44,1.0,10.0,52,0.00,,,0.00,weatherlink.com 1.10,2017-11-17 17:42:00,
2017-11-17 12:58:00,41.9,25.0,30.00,NE,53,4.0,12.0,51,0.00,,,0.00,weatherlink.com 1.10,2017-11-17 17:58:00,
2017-11-17 13:13:00,42.2,26.0,30.00,NW,326,4.0,9.0,53,0.00,,,0.00,weatherlink.com 1.10,2017-11-17 18:13:00,
2017-11-17 13:27:00,42.1,24.0,30.00,NW,326,0.0,6.0,49,0.00,,,0.00,weatherlink.com 1.10,2017-11-17 18:27:00,
2017-11-17 13:43:00,42.6,23.0,30.00,NE,44,5.0,9.0,47,0.00,,,0.00,weatherlink.com 1.10,2017-11-17 18:43:00,
2017-11-17 13:57:00,42.4,23.0,30.00,NE,39,0.0,11.0,47,0.00,,,0.00,weatherlink.com 1.10,2017-11-17 18:57:00,
2017-11-17 14:12:00,42.2,23.0,30.00,East,86,3.0,12.0,46,0.00,,,0.00,weatherlink.com 1.10,2017-11-17 19:12:00,
2017-11-17 14:28:00,42.0,21.0,30.00,South,177,0.0,9.0,44,0.00,,,0.00,weatherlink.com 1.10,2017-11-17 19:28:00,
2017-11-17 14:42:00,41.5,20.0,30.00,NNW,342,7.0,12.0,43,0.00,,,0.00,weatherlink.com 1.10,2017-11-17 19:42:00,
2017-11-17 14:58:00,41.2,21.0,30.01,NE,38,10.0,10.0,45,0.00,,,0.00,weatherlink.com 1.10,2017-11-17 19:58:00,
2017-11-17 15:13:00,41.0,21.0,30.02,SW,235,1.0,5.0,46,0.00,,,0.00,weatherlink.com 1.10,2017-11-17 20:13:00,
2017-11-17 15:28:00,41.0,21.0,30.03,South,175,2.0,6.0,46,0.00,,,0.00,weatherlink.com 1.10,2017-11-17 20:28:00,
2017-11-17 15:43:00,40.2,21.0,30.03,NNW,342,1.0,8.0,46,0.00,,,0.00,weatherlink.com 1.10,2017-11-17 20:43:00,
2017-11-17 15:58:00,39.6,21.0,30.03,WSW,249,0.0,6.0,47,0.00,,,0.00,weatherlink.com 1.10,2017-11-17 20:58:00,
2017-11-17 16:13:00,38.9,20.0,30.04,West,262,0.0,5.0,47,0.00,,,0.00,weatherlink.com 1.10,2017-11-17 21:13:00,
2017-11-17 16:28:00,38.3,19.0,30.04,WSW,249,1.0,7.0,46,0.00,,,0.00,weatherlink.com 1.10,2017-11-17 21:28:00,
2017-11-17 16:43:00,37.8,19.0,30.04,NE,41,1.0,7.0,47,0.00,,,0.00,weatherlink.com 1.10,2017-11-17 21:43:00,
2017-11-17 16:58:00,37.3,20.0,30.05,SW,226,0.0,3.0,49,0.00,,,0.00,weatherlink.com 1.10,2017-11-17 21:58:00,
2017-11-17 17:13:00,37.3,19.0,30.05,NE,40,0.0,4.0,48,0.00,,,0.00,weatherlink.com 1.10,2017-11-17 22:13:00,
2017-11-17 17:28:00,36.7,20.0,30.05,NE,51,5.0,6.0,50,0.00,,,0.00,weatherlink.com 1.10,2017-11-17 22:28:00,
2017-11-17 17:46:00,36.3,19.0,30.05,NNE,16,0.0,4.0,49,0.00,,,0.00,weatherlink.com 1.10,2017-11-17 22:46:00,
2017-11-17 17:58:00,35.7,19.0,30.06,SW,226,0.0,1.0,51,0.00,,,0.00,weatherlink.com 1.10,2017-11-17 22:58:00,
2017-11-17 18:13:00,34.7,19.0,30.05,NNE,13,0.0,1.0,54,0.00,,,0.00,weatherlink.com 1.10,2017-11-17 23:13:00,
2017-11-17 18:28:00,33.8,19.0,30.05,SSE,150,0.0,1.0,56,0.00,,,0.00,weatherlink.com 1.10,2017-11-17 23:28:00,
2017-11-17 18:43:00,31.8,20.0,30.05,SSE,150,0.0,0.0,62,0.00,,,0.00,weatherlink.com 1.10,2017-11-17 23:43:00,
2017-11-17 18:58:00,30.4,20.0,30.05,SSE,150,0.0,0.0,65,0.00,,,0.00,weatherlink.com 1.10,2017-11-17 23:58:00,
2017-11-17 19:13:00,29.3,21.0,30.06,SSE,150,0.0,0.0,71,0.00,,,0.00,weatherlink.com 1.10,2017-11-18 00:13:00,
2017-11-17 19:28:00,28.4,21.0,30.07,SSE,150,0.0,0.0,74,0.00,,,0.00,weatherlink.com 1.10,2017-11-18 00:28:00,
2017-11-17 19:43:00,27.8,21.0,30.06,SSE,150,0.0,0.0,74,0.00,,,0.00,weatherlink.com 1.10,2017-11-18 00:43:00,
2017-11-17 19:59:00,26.6,20.0,30.06,SSE,150,0.0,0.0,76,0.00,,,0.00,weatherlink.com 1.10,2017-11-18 00:59:00,